Home > Weather > Suzhou > Past weeks

Flag for China Past Weather in Suzhou, Jiangsu, China — Yesterday and Last 2 Weeks

Now
93 °F

Passing clouds.


Feels Like: 107 °F
Forecast: 83 / 94 °F
Wind: 15 mph from Southeast

Location: Shanghai Hongqiao Airport

Current Time: Jul 30, 2016 at 5:22:20 PM

Latest Report: Jul 30, 2016 at 4:30 PM


Visibility: N/A

Pressure: 29.71 "Hg

Humidity: 59%

Dew Point: 77 °F

Location of SuzhouLocation

Past Weather in Suzhou — Graph

°F

Suzhou Temperature Yesterday

Maximum temperature yesterday: 102 °F (at 12:30 PM)
Minimum temperature yesterday: 79 °F (at 2:00 PM)
Average temperature yesterday: 89 °F

High & Low Weather Summary for the Past Weeks

 TemperatureHumidityPressure
High104 °F (Jul 26, 1:00 PM)100% (Jul 16, 6:30 AM)29.80 "Hg (Jul 16, 6:30 AM)
Low73 °F (Jul 16, 6:30 AM)33% (Jul 27, 3:30 PM)29.45 "Hg (Jul 15, 4:00 PM)
Average90 °F68%29.69 "Hg
* Reported Jul 15 4:00 PM — Jul 30 4:00 PM, Suzhou, Weather by CustomWeather, © 2016

Note: Actual official high and low records may vary slightly from our data, if they occured in-between our weather recording intervals... More about our weather records

Advertising

Suzhou Weather History for the Previous 24 Hours

Scroll right to see more
 ConditionsComfort  
Time TempWeatherWind HumidityBarometerVisibility
4:00 PM
Sat, Jul 30
93 °FScattered clouds.13 mph59%29.74 "HgN/A
3:30 PM95 °FPartly sunny.13 mph56%29.74 "HgN/A
3:00 PM95 °FPartly sunny.13 mph56%29.74 "HgN/A
2:30 PM95 °FPartly sunny.13 mph60%29.74 "HgN/A
2:00 PM95 °FPartly sunny.13 mph56%29.74 "HgN/A
1:30 PM95 °FScattered clouds.13 mph56%29.77 "HgN/A
1:00 PM97 °FPassing clouds.10 mph50%29.77 "HgN/A
12:30 PM95 °FPassing clouds.10 mph56%29.77 "HgN/A
12:00 PM95 °FSunny.13 mph53%29.77 "Hg10 mi
11:30 AM95 °FPassing clouds.10 mph60%29.77 "HgN/A
11:00 AM93 °FPassing clouds.8 mph59%29.80 "HgN/A
10:30 AM91 °FPassing clouds.10 mph67%29.80 "HgN/A
10:00 AM91 °FSunny.10 mph67%29.80 "Hg10 mi
9:30 AM91 °FSunny.10 mph67%29.80 "Hg10 mi
9:00 AM90 °FSunny.10 mph71%29.80 "Hg10 mi
8:30 AM90 °FSunny.8 mph75%29.77 "Hg10 mi
8:00 AM88 °FSunny.8 mph75%29.77 "Hg10 mi
7:30 AM86 °FPassing clouds.8 mph84%29.77 "HgN/A
7:00 AM86 °FScattered clouds.8 mph84%29.77 "HgN/A
6:30 AM84 °FSunny.8 mph84%29.77 "Hg10 mi
6:00 AM84 °FPassing clouds.8 mph89%29.77 "HgN/A
5:30 AM84 °FSunny.6 mph84%29.74 "Hg10 mi
5:00 AM84 °FClear.8 mph89%29.74 "Hg10 mi
4:30 AM84 °FPassing clouds.6 mph89%29.74 "HgN/A
4:00 AM84 °FPassing clouds.6 mph84%29.74 "HgN/A
3:30 AM84 °FClear.6 mph89%29.74 "Hg10 mi
3:00 AM84 °FClear.8 mph84%29.74 "Hg10 mi
2:30 AM84 °FClear.6 mph89%29.74 "Hg10 mi
2:00 AM84 °FClear.6 mph89%29.74 "Hg10 mi
1:30 AM84 °FPassing clouds.6 mph84%29.74 "HgN/A
1:00 AM84 °FPassing clouds.6 mph84%29.74 "HgN/A
12:30 AM84 °FClear.8 mph84%29.74 "Hg10 mi
12:00 AM84 °FClear.10 mph84%29.74 "Hg10 mi
11:30 PM
Fri, Jul 29
86 °FClear.10 mph79%29.74 "Hg10 mi
11:00 PM86 °FClear.13 mph79%29.74 "Hg10 mi
10:30 PM86 °FClear.10 mph84%29.74 "Hg10 mi
10:00 PM86 °FClear.8 mph84%29.74 "Hg10 mi
9:30 PM88 °FClear.10 mph79%29.74 "Hg10 mi
9:00 PM88 °FClear.10 mph84%29.74 "Hg10 mi
8:30 PM88 °FClear.8 mph79%29.74 "Hg10 mi
8:00 PM88 °FClear.13 mph79%29.74 "Hg10 mi
7:30 PM90 °FClear.6 mph71%29.71 "Hg10 mi
7:00 PM90 °FClear.8 mph71%29.71 "Hg10 mi
6:30 PM90 °FPassing clouds.6 mph75%29.71 "HgN/A
6:00 PM90 °FSunny.No wind67%29.71 "Hg10 mi
5:30 PM91 °FSunny.No wind63%29.71 "Hg10 mi
5:00 PM90 °FSunny.1 mph67%29.71 "Hg10 mi
Weather by CustomWeather, © 2016

See weather overviewHow to use our weather pages